{"data":{"norad_id":63813,"epoch":"2026-05-25T03:50:12.989184Z","epoch_age_seconds":51269,"freshness":"FRESH","line1":"1 63813U 25092K   26145.15987256  .00021453  00000+0  78660-3 0  9994","line2":"2 63813  42.9989  96.8384 0001185 242.2456 117.8276 15.27589812 60299","mean_motion":15.27589812,"eccentricity":0.0001185,"inclination_deg":42.9989,"raan_deg":96.8384,"arg_perigee_deg":242.2456,"mean_anomaly_deg":117.8276,"bstar":0.0007866,"rev_number":6029,"period_min":94.26614322039,"perigee_km":482.20666846828,"apogee_km":483.83276260986,"semimajor_km":6861.1567155391,"source":"CELESTRAK","updated_at":"2026-05-25T13:38:20.141136Z"}}